GFSSW_850_spd_048.txt.gz
Wind_Speed
10 10 11 13 14 17 15 14 12 11 9 12 10 7 5 3 2 5 1 6 8 3 1 5 8 6 4 4 3 4 3 4 4 3 5 3 3 8 9 15 20 10 11 7 8
11 9 10 11 12 12 12 12 11 10 9 12 10 8 5 3 5 3 7 8 4 2 1 3 2 4 3 2 2 2 3 4 5 6 5 6 6 6 1 13 13 12 11 9 10
11 10 9 10 10 10 12 14 11 10 10 12 10 8 5 4 2 5 7 4 3 1 1 2 4 4 3 3 3 4 3 5 5 7 5 2 7 3 4 5 6 7 8 9 10
13 12 10 10 10 12 13 12 10 10 12 13 10 8 7 6 0 3 3 2 2 2 5 4 3 4 3 2 1 4 6 3 3 0 2 3 9 5 9 8 9 7 7 8 10
14 14 12 11 11 12 11 11 10 12 13 13 10 9 9 4 1 3 2 2 2 4 2 2 4 2 5 3 3 4 8 4 3 2 4 5 5 7 8 9 8 7 7 8 9
14 15 13 12 11 12 11 10 12 13 14 12 10 10 7 4 1 2 1 1 4 4 4 3 3 3 5 4 4 4 6 9 7 7 6 7 5 6 9 10 9 8 8 7 8
13 13 13 11 12 12 10 11 13 13 13 10 10 10 2 1 2 1 2 2 3 5 0 0 0 2 2 4 2 4 6 5 8 9 5 4 6 8 17 13 11 10 8 7 7
14 12 11 11 12 10 11 12 12 13 11 10 11 6 0 4 4 2 3 2 4 2 1 1 3 1 3 2 3 4 8 6 11 13 8 5 5 9 14 14 13 12 11 8 7
11 10 10 11 10 10 12 12 12 11 9 11 8 0 4 3 4 1 3 1 1 3 2 2 3 2 1 4 5 7 6 10 5 12 7 7 3 10 14 14 13 12 13 11 10
9 10 11 11 11 13 13 12 13 10 9 8 3 4 4 4 4 3 2 2 1 2 2 1 2 2 4 6 6 6 4 8 1 8 5 7 10 11 18 16 14 14 14 14 12
11 11 10 11 14 14 16 17 9 4 6 3 7 7 7 4 6 3 0 1 1 3 3 5 2 6 5 4 5 7 8 8 8 6 2 7 11 8 20 16 14 15 15 15 15
11 10 12 13 13 16 12 2 1 5 5 2 3 7 6 3 4 3 2 3 4 5 6 3 6 4 3 4 4 7 9 9 2 7 2 7 12 9 19 17 19 18 16 16 15
12 13 13 12 12 15 5 3 6 7 5 4 4 4 4 2 2 6 3 0 5 7 5 7 4 3 2 1 5 7 7 7 7 2 8 7 11 14 10 18 17 17 17 16 16
15 14 15 14 9 5 1 3 9 1 4 6 5 3 3 2 3 0 2 2 2 4 5 5 5 2 2 6 7 7 8 6 6 5 3 3 5 4 11 9 11 17 18 18 15
16 17 18 6 10 1 4 9 2 1 4 8 6 4 3 3 6 2 0 1 4 5 1 1 1 2 4 2 6 4 4 4 5 7 8 8 3 4 11 7 10 17 20 18 15
15 17 13 8 7 5 4 8 1 3 2 3 5 6 6 5 5 2 2 0 2 4 7 7 3 2 5 3 3 3 5 8 4 4 4 10 7 4 6 11 9 18 22 21 18
16 14 11 12 6 5 7 3 4 4 5 5 5 5 8 6 5 2 4 5 2 3 5 8 8 5 2 3 4 4 4 2 3 3 3 6 4 4 7 6 3 16 23 21 18
12 7 5 5 5 7 6 4 4 6 6 3 3 3 4 4 3 3 3 4 1 3 4 4 4 5 4 2 4 6 2 3 4 2 2 4 5 4 7 9 3 6 19 19 16
9 5 2 2 4 7 3 5 5 6 3 3 3 4 7 4 1 3 6 4 6 6 3 6 4 4 4 4 2 3 3 3 4 8 4 5 3 4 4 5 5 7 14 15 14
6 3 4 4 6 6 4 5 4 4 2 2 3 2 4 8 3 4 6 3 3 4 4 2 2 1 4 2 4 3 5 2 2 3 4 4 6 3 4 5 4 6 8 11 12
5 4 3 5 6 5 4 4 4 4 4 2 4 1 1 2 3 2 6 2 1 2 3 3 3 3 1 6 2 3 3 4 1 2 3 3 2 2 7 3 9 10 13 16 16
1 2 2 9 5 7 3 4 2 3 1 1 2 3 3 3 2 1 3 5 3 4 2 4 3 4 3 4 5 3 4 3 2 4 3 2 6 8 8 9 9 11 9 7 1
4 3 2 9 3 5 4 4 3 2 2 1 2 2 2 1 1 2 4 3 2 3 5 5 3 4 2 2 2 3 4 4 5 2 5 1 5 6 9 5 4 3 4 7 10
2 3 3 5 6 6 5 4 3 2 2 1 3 1 1 3 2 2 4 2 1 3 2 3 3 4 3 3 2 4 3 4 4 2 4 6 14 9 10 6 11 10 8 9 5
3 2 1 3 6 4 2 3 6 3 1 3 3 5 2 2 3 3 4 5 3 3 1 2 3 5 8 9 8 8 10 10 12 12 7 12 12 14 6 6 9 8 8 6 10
4 2 0 3 1 5 2 4 6 4 4 5 2 4 1 2 6 4 1 3 4 6 2 3 2 4 4 6 3 7 13 12 12 12 13 14 14 6 5 12 12 11 14 16 14
5 4 0 3 3 3 2 5 4 10 2 6 2 3 3 5 5 4 4 3 4 1 6 4 2 3 4 2 8 8 4 2 3 4 4 6 7 5 6 9 13 16 20 18 12

GFSSW_850_spd_051.txt.gz
Wind_Speed
11 10 10 11 12 12 14 13 14 12 10 10 10 10 7 5 4 7 4 4 6 5 1 3 4 6 3 3 4 3 5 3 3 2 4 7 3 8 8 17 13 9 10 6 3
11 9 8 9 10 10 11 11 11 11 10 10 11 10 7 5 7 7 6 5 5 4 4 5 5 1 1 1 1 4 4 1 2 2 3 5 8 6 5 11 10 13 9 7 7
11 9 8 8 9 9 10 10 12 11 10 10 11 9 6 5 5 4 4 6 5 3 3 4 4 3 1 1 2 2 4 4 3 5 6 5 4 4 12 2 5 11 9 8 8
12 11 9 9 9 9 10 11 13 11 11 11 11 9 7 8 4 2 4 6 6 3 2 4 1 2 1 3 3 5 5 5 4 1 1 1 9 5 2 5 14 14 10 9 9
14 12 11 10 10 10 11 12 12 11 12 11 11 8 8 4 3 1 4 5 6 4 3 1 2 3 1 5 2 4 5 5 4 3 5 7 3 7 9 10 12 13 10 11 11
13 13 13 12 11 11 11 12 11 11 12 10 10 8 6 2 3 0 3 4 7 7 3 2 1 3 1 4 4 4 9 9 6 6 3 5 4 2 9 12 12 12 12 12 10
14 12 13 13 11 10 10 11 10 12 11 10 9 9 4 1 3 2 4 3 6 7 6 4 4 3 2 4 3 7 4 3 9 10 5 7 1 8 13 17 15 14 13 11 10
14 12 12 11 9 9 10 10 12 12 10 10 10 6 1 4 3 5 5 3 3 3 2 3 5 3 3 4 1 3 4 3 6 14 5 8 7 5 21 21 18 18 15 12 11
12 11 11 8 7 9 10 11 11 10 9 10 7 1 1 7 6 3 7 5 1 3 3 4 5 3 2 4 4 2 4 6 2 13 5 5 5 8 21 22 20 21 20 17 14
9 8 7 7 10 11 12 12 11 10 12 9 3 2 5 4 6 4 3 4 3 1 2 2 2 3 3 4 4 3 3 2 5 7 6 7 10 7 26 25 24 22 24 20 20
7 8 10 11 12 14 16 15 8 6 8 2 6 8 12 8 8 4 1 2 3 0 2 1 4 3 5 6 5 2 1 4 2 3 5 8 8 10 25 24 20 22 25 25 23
10 10 11 13 14 17 13 2 5 8 5 2 7 13 8 5 5 2 2 0 3 2 2 4 2 3 3 3 3 3 3 6 3 2 1 6 13 11 20 24 31 26 22 26 22
12 12 13 14 17 11 3 4 5 11 5 2 5 4 5 4 3 2 2 0 2 2 3 5 1 3 1 1 2 3 1 3 2 2 4 3 8 5 3 12 25 21 20 21 24
14 14 14 13 9 3 1 3 8 3 4 2 2 2 5 4 3 0 1 1 2 2 2 1 3 2 1 2 1 2 1 2 4 5 3 3 5 6 4 6 11 20 18 19 22
14 16 17 8 9 3 1 5 3 1 4 5 4 7 7 3 8 0 1 1 1 3 5 5 3 2 2 1 2 3 1 1 1 1 4 3 1 7 7 4 8 16 20 18 17
13 15 11 8 5 1 0 7 1 5 2 3 5 4 4 4 5 3 0 0 1 2 2 4 2 2 2 2 3 3 2 3 2 2 2 6 7 5 4 7 5 15 24 23 19
13 15 8 6 2 1 4 4 4 3 4 4 4 5 5 5 5 5 3 1 2 2 1 3 2 2 2 1 2 3 5 3 2 2 5 3 5 7 2 3 5 17 29 27 23
12 9 4 5 1 3 6 4 2 4 3 2 4 5 3 4 2 3 0 1 5 2 1 4 2 2 1 1 2 4 6 4 4 3 4 5 5 3 2 10 11 15 26 24 23
9 5 4 3 3 6 2 3 3 2 2 4 2 3 3 3 4 2 2 2 2 5 4 3 2 1 4 2 2 1 2 4 1 2 1 4 1 3 4 4 8 10 17 18 20
8 3 1 0 4 5 4 2 2 3 4 1 1 5 3 4 3 5 3 3 3 2 2 1 0 2 1 1 1 2 2 2 2 2 4 5 1 2 4 4 4 8 12 12 13
7 2 3 4 6 2 2 2 3 3 5 4 3 2 2 4 3 2 2 3 5 0 1 2 3 2 2 4 5 1 2 2 2 5 4 1 5 5 1 1 4 3 8 14 19
1 1 3 8 2 2 2 2 2 2 3 3 3 3 3 3 1 3 4 3 4 3 2 0 3 3 5 1 1 1 3 4 4 4 1 4 5 2 8 10 10 5 4 1 12
1 3 5 8 2 1 2 3 4 2 3 1 2 3 3 3 2 3 5 1 3 4 1 2 1 2 4 4 2 1 3 3 4 3 4 4 5 3 6 5 2 3 3 5 6
1 2 3 7 4 3 4 3 3 2 2 3 3 2 1 2 3 2 3 1 1 2 0 1 1 5 5 3 3 2 3 1 4 3 3 6 4 7 5 3 4 3 3 5 7
3 2 3 2 4 4 2 5 4 3 1 0 1 2 1 3 3 4 3 2 0 2 0 3 2 2 4 6 4 5 7 7 7 6 4 4 7 7 5 2 1 2 5 6 10
1 0 2 1 2 5 3 2 5 4 3 2 0 4 2 3 1 3 4 4 4 3 2 1 2 3 4 4 3 5 9 8 6 6 8 7 8 2 4 7 11 11 14 19 25
3 5 1 1 1 4 2 1 4 10 2 4 3 4 5 3 6 6 5 4 5 6 4 4 2 3 4 6 6 6 3 2 4 3 2 2 5 5 6 10 13 19 23 22 14

GFSSW_850_spd_054.txt.gz
Wind_Speed
14 12 12 12 13 13 13 14 13 13 12 12 12 12 12 10 7 9 9 9 6 3 2 3 4 3 1 2 3 1 5 2 3 5 3 4 3 5 7 8 6 6 10 6 7
14 12 11 10 11 11 11 12 13 13 12 12 12 11 11 9 9 12 8 9 5 3 1 4 4 2 2 1 2 4 4 7 2 3 4 3 5 9 5 9 6 11 12 9 9
13 12 10 9 10 10 11 11 12 13 12 12 11 10 9 7 6 7 9 8 5 5 2 3 2 0 2 2 1 2 5 6 4 6 6 7 5 5 12 2 8 12 12 10 9
13 12 11 9 10 10 10 11 11 14 12 12 11 9 9 5 5 6 6 7 7 4 5 3 4 3 3 3 3 4 2 4 6 4 3 5 9 4 6 3 12 13 12 11 9
12 13 12 10 10 10 11 11 12 14 11 11 11 8 7 6 5 3 6 8 10 7 10 5 7 4 5 4 4 3 5 6 5 3 5 10 3 5 7 14 15 12 13 11 10
11 14 13 11 11 11 11 12 12 12 11 11 10 9 7 3 6 4 7 9 10 12 9 12 8 2 5 3 4 4 5 4 3 4 3 4 2 0 9 14 16 13 14 13 12
15 14 14 12 12 12 11 10 11 10 12 11 9 9 7 6 4 4 6 8 11 11 13 8 4 2 5 4 4 9 4 4 3 5 3 4 3 7 10 17 18 16 15 14 13
18 13 12 12 12 11 9 8 11 10 11 10 9 9 4 6 5 7 8 7 7 7 6 6 4 3 2 6 4 4 4 0 4 9 3 5 9 3 16 23 21 20 19 16 15
12 12 11 11 10 8 7 9 9 11 10 9 8 4 1 6 8 7 6 7 5 5 5 5 5 3 4 5 4 4 3 5 7 14 5 6 7 3 19 26 24 24 23 20 18
10 10 10 9 9 8 10 10 11 10 11 9 6 2 6 8 9 6 7 6 4 5 5 4 2 3 3 3 5 5 3 4 4 6 6 5 12 2 22 25 27 26 26 24 23
9 8 8 9 9 11 11 13 10 6 10 5 6 3 10 10 10 5 5 7 5 3 3 2 4 4 6 6 4 3 2 4 4 1 5 6 7 8 22 23 21 26 30 27 26
9 10 9 8 9 10 13 4 4 4 4 3 7 6 8 9 5 4 5 3 3 3 2 5 2 4 5 4 4 2 3 4 3 2 4 5 11 10 13 24 35 33 33 31 27
10 11 12 12 13 10 3 3 7 6 3 3 4 5 7 3 3 2 3 3 2 2 3 4 2 4 3 2 2 0 3 2 4 4 4 4 8 5 1 7 22 24 30 32 32
11 12 13 13 7 2 1 4 7 2 4 1 1 2 5 4 3 2 2 2 1 3 3 3 1 3 2 2 3 2 3 1 1 3 3 3 5 6 4 3 8 22 24 29 33
12 13 12 12 3 2 1 4 2 1 4 4 3 5 5 2 6 2 2 2 2 1 5 5 4 2 2 2 1 4 2 0 1 2 3 3 3 7 2 3 7 17 23 23 28
11 13 11 6 3 1 1 5 1 5 2 3 4 4 3 2 2 3 2 2 2 2 3 2 0 1 3 2 2 3 3 7 4 3 2 4 5 5 3 5 3 10 22 20 20
11 12 7 3 1 1 3 3 5 4 1 4 4 4 2 3 1 2 2 3 2 3 1 2 1 1 1 2 4 5 5 3 3 2 6 1 4 7 5 3 3 14 24 22 20
13 7 3 4 2 2 4 4 2 2 2 2 4 4 4 4 2 2 3 2 5 3 2 3 4 2 2 2 4 3 6 5 5 3 4 4 4 4 3 7 8 3 20 23 22
11 7 4 3 2 4 1 3 3 1 3 4 3 3 3 1 4 2 2 3 1 2 5 4 4 1 3 2 2 1 2 2 2 2 2 3 4 6 2 6 10 6 9 20 22
10 5 4 3 4 4 4 3 3 2 3 2 3 3 5 4 2 3 4 2 1 1 2 2 2 1 1 2 2 2 2 2 3 2 4 4 4 3 5 1 2 4 6 12 17
7 2 4 4 5 2 3 4 2 2 3 2 2 2 3 4 4 3 2 2 4 1 2 1 2 2 2 3 5 2 2 2 3 4 4 2 5 3 2 3 3 3 7 11 16
4 2 5 7 2 2 2 1 2 2 3 3 2 2 2 1 2 3 3 1 3 0 2 2 3 3 5 3 1 3 4 4 4 3 1 4 6 2 2 11 8 6 3 4 5
3 3 5 8 3 1 1 2 3 1 2 2 2 3 2 2 3 3 3 0 1 2 3 2 1 2 5 4 1 3 3 3 4 3 5 4 5 1 2 3 4 1 2 5 4
2 2 3 6 3 6 4 3 2 1 1 3 2 1 2 2 4 4 2 1 1 2 3 2 2 5 5 3 2 4 3 4 5 3 3 6 4 5 5 2 3 4 5 6 8
3 3 4 3 4 4 4 5 4 3 1 1 2 2 3 3 2 3 2 1 1 1 2 3 3 2 3 5 4 6 7 6 6 5 5 3 5 6 7 1 6 7 9 13 18
3 3 4 3 2 6 1 6 6 3 4 3 2 4 2 4 4 6 5 4 3 1 3 2 1 2 3 3 5 4 6 8 6 4 6 5 5 3 9 10 12 15 14 13 15
6 4 2 1 3 4 4 5 7 11 1 2 3 4 3 4 6 8 8 8 7 6 4 3 3 2 4 5 6 5 2 5 2 2 1 3 1 4 6 8 12 14 8 14 17

GFSSW_850_spd_060.txt.gz
Wind_Speed
12 14 14 14 15 14 15 14 14 16 17 19 18 16 16 17 16 16 19 14 11 8 4 3 4 3 5 3 3 4 5 3 7 7 4 9 4 3 5 8 4 4 5 9 15
13 14 14 14 14 14 14 14 14 15 16 17 17 15 14 15 16 19 16 11 9 11 5 3 4 4 5 4 3 4 4 9 6 6 4 8 4 9 5 5 4 8 10 17 20
16 14 13 13 13 14 13 12 14 14 15 16 15 13 11 10 12 16 13 12 11 7 11 5 4 4 4 3 3 3 4 5 4 4 5 7 5 4 10 3 8 14 19 24 22
15 15 14 13 13 13 13 13 14 13 14 14 13 12 10 7 6 5 9 13 13 9 7 7 5 2 3 2 3 3 2 5 5 4 4 6 9 3 7 2 4 16 20 23 21
14 14 14 13 13 13 13 13 13 12 13 13 12 10 8 8 12 4 9 12 12 10 9 5 5 2 4 2 0 3 2 5 5 5 5 9 3 3 6 5 13 19 19 21 20
15 11 12 13 13 13 13 12 13 13 13 12 10 9 8 6 7 6 8 11 12 10 12 8 3 2 3 6 2 3 4 6 4 5 4 3 2 1 6 13 17 19 19 19 18
15 15 13 14 13 13 13 12 13 12 12 10 8 9 11 15 6 5 8 9 13 10 8 11 4 2 5 4 2 8 1 2 1 4 3 5 2 7 8 17 18 20 20 19 18
16 17 16 14 13 12 12 13 13 10 9 9 7 8 9 9 8 7 7 8 9 8 7 9 1 4 1 10 5 5 5 2 0 4 1 3 7 2 12 20 19 21 21 21 21
15 20 17 14 13 12 12 11 10 9 8 6 6 6 7 8 7 8 7 7 8 6 7 6 3 4 4 5 5 5 3 3 8 4 2 3 6 1 12 21 21 23 24 23 22
7 11 13 12 12 12 9 8 6 6 7 3 6 4 6 7 8 8 6 8 5 8 6 4 3 3 3 4 5 6 3 3 5 1 1 2 11 5 8 21 25 25 25 26 25
5 8 10 10 8 7 5 4 4 3 9 9 3 4 5 12 9 6 7 7 5 4 3 3 4 6 10 3 3 5 3 3 2 2 3 6 9 12 14 20 23 25 29 28 27
5 7 6 6 5 5 9 5 1 4 6 15 12 10 7 7 6 5 7 4 3 3 4 5 5 3 4 5 3 3 3 3 3 1 3 4 11 11 5 10 25 31 32 33 27
4 5 6 5 6 6 9 2 6 6 2 2 4 3 7 4 4 4 4 3 2 3 3 5 1 6 4 4 4 2 3 2 4 4 1 6 7 5 2 2 5 17 27 31 32
5 4 7 7 4 3 3 4 3 3 4 4 1 2 3 5 5 4 4 3 1 5 6 2 2 3 3 3 4 1 1 2 2 3 3 4 5 6 4 8 4 7 15 24 29
8 6 8 6 2 1 3 4 3 1 4 2 0 3 4 5 5 3 5 2 2 2 4 2 2 2 3 1 1 2 4 3 3 3 3 3 2 7 5 6 8 10 7 15 24
11 9 7 2 2 2 6 2 2 3 2 2 2 1 5 4 3 3 2 4 3 4 5 2 2 3 2 3 4 6 4 6 4 3 1 2 3 5 4 5 7 9 7 8 16
10 8 5 2 3 6 4 1 4 4 1 1 3 2 3 1 2 2 4 5 2 3 1 4 2 2 2 4 3 5 5 3 4 3 5 1 2 6 5 4 5 12 11 6 8
8 8 5 3 8 6 2 3 4 2 2 2 4 4 4 4 3 3 3 2 5 3 3 4 3 2 4 2 5 2 5 5 4 2 4 1 5 2 3 8 9 8 5 4 4
10 6 4 4 4 2 2 3 3 1 2 4 3 3 2 2 4 4 3 2 1 3 4 4 1 1 4 2 2 2 2 2 5 3 1 3 5 4 7 7 13 18 15 8 3
10 5 4 4 2 1 4 3 1 1 2 1 2 2 3 2 3 3 3 1 1 2 1 3 2 2 1 3 5 2 5 3 3 2 3 4 4 3 5 5 7 13 17 14 10
7 3 4 4 2 1 2 4 2 1 2 3 2 3 2 3 4 3 3 2 1 1 3 3 3 2 1 2 6 2 0 5 4 3 4 2 5 5 2 4 6 11 15 18 19
4 1 5 5 2 2 2 2 1 1 3 3 3 3 4 3 3 2 5 2 1 1 3 1 4 3 3 1 1 2 4 5 4 4 1 4 5 1 3 5 6 9 12 13 14
2 1 5 7 2 1 3 1 2 2 3 2 2 2 2 3 3 2 3 2 2 2 3 3 1 2 5 4 2 2 3 4 5 3 5 4 5 1 3 8 9 9 10 10 11
3 1 2 5 2 5 4 2 1 2 2 3 2 2 2 2 5 4 2 2 2 3 5 2 2 4 5 2 1 1 3 4 4 3 4 6 4 2 6 4 6 7 8 9 12
4 3 4 2 3 3 3 3 3 1 2 2 2 2 2 2 2 3 2 2 3 2 3 3 2 2 3 3 1 3 4 5 6 4 5 4 7 1 2 4 3 5 7 9 13
3 4 4 2 2 6 1 5 5 2 2 1 2 2 3 3 1 6 5 3 2 2 2 4 1 2 2 3 3 4 7 6 4 3 7 4 6 4 4 1 4 6 6 7 9
10 5 3 1 3 4 4 5 6 8 2 3 4 4 5 2 8 10 8 11 7 5 3 2 3 2 4 4 6 6 4 5 4 4 4 4 4 5 2 3 8 10 8 12 15

GFSSW_850_spd_063.txt.gz
Wind_Speed
13 11 14 15 14 13 14 13 13 13 16 17 18 19 19 18 18 19 21 14 11 12 6 3 4 2 5 4 4 5 4 3 7 7 3 12 5 7 5 8 6 7 6 8 16
14 14 12 15 14 13 12 13 14 13 15 16 17 18 17 16 17 22 21 11 10 12 8 3 3 1 3 4 4 3 3 7 6 6 4 10 6 13 7 6 4 6 8 15 17
14 15 14 12 14 13 12 12 13 14 14 15 15 15 14 12 13 20 18 17 10 10 13 5 1 1 3 5 4 3 4 5 5 7 7 9 6 7 8 4 10 13 17 20 20
15 13 13 13 13 13 12 12 13 13 14 13 13 13 11 7 6 4 10 15 13 11 12 9 4 2 2 5 4 2 3 3 7 8 7 9 10 5 10 3 4 9 18 23 22
15 10 11 13 13 12 12 11 12 12 12 13 12 11 9 8 15 1 7 15 13 13 10 13 7 3 3 3 6 3 3 5 7 8 8 11 3 2 8 7 6 16 20 22 22
13 11 10 11 12 13 12 11 12 11 12 13 11 10 8 6 9 6 7 10 12 15 14 12 6 4 4 1 1 5 7 7 4 5 6 3 1 1 5 8 14 19 22 22 22
11 11 13 12 13 13 13 11 12 12 12 12 9 10 11 20 8 7 8 9 12 13 15 13 7 5 2 3 5 10 5 2 2 4 2 4 2 6 5 14 18 21 22 23 23
9 13 15 14 12 13 13 12 12 13 11 9 7 9 10 7 12 9 9 9 11 11 8 12 11 3 2 7 4 3 4 3 1 5 1 3 5 2 9 18 20 22 23 24 24
10 13 16 15 13 12 13 12 12 11 8 7 6 6 8 6 10 9 9 9 11 10 9 12 10 5 5 5 2 4 3 3 3 3 3 3 4 2 9 18 18 22 24 24 24
6 6 10 11 11 11 10 11 9 5 6 5 7 5 6 6 10 11 9 10 7 11 9 7 6 3 2 2 5 3 1 2 4 2 1 2 10 5 7 18 21 22 25 25 27
4 3 4 7 8 8 7 5 3 2 11 9 2 5 3 7 11 10 11 10 11 6 4 2 3 5 6 4 3 4 3 3 1 1 1 3 7 13 10 15 17 22 26 28 29
2 1 5 5 6 6 6 3 1 2 7 17 12 10 4 4 6 8 10 6 5 4 5 3 4 3 5 4 3 3 3 3 1 2 2 3 12 10 2 7 16 23 25 30 28
4 2 3 4 2 3 6 2 7 9 3 1 4 2 4 3 4 4 7 5 4 3 3 4 2 6 4 4 5 2 3 3 3 1 2 5 6 3 2 3 5 9 17 25 31
8 6 3 4 2 1 2 4 7 4 3 4 1 2 2 6 5 5 5 3 3 5 6 3 2 4 4 3 4 3 1 3 3 2 2 3 4 3 4 4 7 11 6 13 26
8 8 6 5 0 2 2 8 5 1 4 2 0 2 2 4 7 4 5 3 4 4 4 2 2 3 3 2 1 3 3 3 2 3 1 2 1 4 4 5 9 11 11 4 14
9 9 6 4 5 2 7 5 2 2 2 0 1 3 3 4 3 3 2 5 5 5 5 2 2 3 2 3 3 7 4 5 3 2 0 1 2 2 3 5 9 13 12 3 7
8 8 7 4 2 6 9 2 3 3 0 1 1 3 3 2 3 3 3 4 3 4 1 4 3 3 3 4 3 3 4 2 2 1 3 1 1 3 5 5 6 12 10 8 6
9 8 7 6 9 10 5 2 2 2 2 2 2 3 3 3 3 2 2 3 5 4 3 5 2 2 4 2 4 2 4 4 3 2 2 1 4 1 3 7 11 12 13 11 9
8 7 8 6 6 4 2 3 2 1 2 5 2 3 1 1 4 4 3 3 1 2 4 4 1 1 4 1 1 3 2 2 5 2 1 2 3 2 3 7 13 16 18 15 12
8 6 8 6 3 3 3 4 2 1 1 1 3 3 4 2 3 3 2 1 2 2 1 4 3 1 1 2 6 1 5 2 2 2 3 2 3 3 1 5 7 13 17 16 14
7 4 4 4 2 2 2 4 2 1 1 1 2 3 3 4 3 2 3 1 2 2 3 3 2 1 1 1 5 2 1 5 3 1 2 2 3 3 2 1 3 6 11 16 16
5 1 3 5 0 1 1 2 3 2 3 2 3 2 3 2 3 2 3 3 3 1 3 0 3 2 1 1 1 2 3 3 3 3 1 0 4 1 3 2 5 8 10 11 12
4 3 4 7 2 2 3 1 1 2 3 3 2 3 3 3 3 2 3 2 2 2 3 3 2 2 2 2 2 1 2 3 4 2 5 3 2 4 3 5 6 8 7 8 8
3 0 3 6 3 4 3 2 2 1 1 3 2 2 3 3 5 4 2 2 2 3 5 3 3 3 3 2 2 2 3 3 3 2 4 5 2 4 1 4 4 4 4 4 7
6 3 4 2 3 4 4 3 3 2 1 2 3 2 3 3 2 3 2 2 3 1 3 3 2 2 2 2 2 3 4 6 7 4 6 2 6 3 4 6 3 1 1 4 9
5 4 4 3 3 5 3 6 7 2 2 1 5 2 1 4 4 7 6 4 3 1 2 1 3 3 2 0 0 4 6 5 5 4 7 3 7 4 7 7 3 1 5 8 11
12 5 2 2 3 4 5 6 8 8 1 2 5 5 4 1 5 8 5 9 7 5 3 2 4 2 2 3 4 6 4 5 3 2 4 4 4 6 4 5 3 6 6 8 14

GFSSW_850_spd_066.txt.gz
Wind_Speed
12 12 12 12 14 14 13 13 13 13 14 16 19 19 19 21 20 18 21 20 12 10 9 6 6 5 6 4 5 5 4 7 8 9 7 12 10 5 3 5 7 7 4 6 15
12 13 13 13 13 14 13 13 13 13 14 16 18 19 18 18 18 24 25 19 15 11 9 6 5 5 4 5 4 6 6 7 4 8 7 15 12 11 7 8 9 8 8 10 18
13 13 12 12 13 13 13 13 12 13 13 15 16 17 15 13 13 16 19 19 14 12 11 9 4 3 5 5 6 5 6 5 6 8 10 15 10 9 7 8 10 12 13 15 17
11 14 9 10 12 13 13 13 12 12 13 14 14 16 13 6 6 3 10 18 17 15 10 14 7 3 4 7 6 7 2 4 8 8 9 12 12 7 12 2 4 7 13 17 18
11 13 7 10 12 12 12 12 12 12 12 13 14 14 10 8 16 3 2 17 19 17 13 14 12 5 4 3 3 8 7 5 7 8 7 11 7 3 9 7 7 9 15 17 17
9 12 9 10 11 12 12 12 12 12 12 13 13 12 8 14 14 8 5 12 17 17 12 14 11 7 2 1 3 2 7 9 6 7 6 5 4 2 5 7 9 14 16 17 17
9 9 10 13 11 12 13 12 11 12 13 13 13 11 12 23 9 10 10 10 13 16 11 11 11 9 4 2 1 9 3 4 6 6 4 4 5 7 5 10 12 15 15 16 17
9 8 11 14 13 12 12 12 11 13 14 13 11 8 11 13 16 13 11 10 11 12 10 13 12 9 3 6 2 4 3 5 3 6 2 3 11 4 7 11 13 15 16 17 18
8 9 13 14 14 12 11 11 12 13 12 11 7 7 10 7 13 12 13 10 12 12 11 14 9 5 6 6 4 3 11 15 6 5 3 7 9 4 6 10 12 16 17 18 18
6 5 4 7 9 10 11 10 10 10 8 8 8 7 8 3 9 12 12 12 10 14 10 8 6 8 8 8 10 5 7 7 7 4 6 6 13 6 6 11 14 16 18 19 21
2 2 2 4 6 6 7 6 3 3 11 9 3 6 2 3 11 10 14 13 11 14 9 8 9 15 17 14 7 4 5 6 1 2 3 7 12 11 7 11 14 17 19 21 22
1 1 1 4 4 4 4 2 3 2 9 15 19 16 13 2 6 10 15 9 13 13 8 6 13 11 6 7 6 4 5 8 2 1 3 6 14 12 4 4 7 13 18 20 19
3 3 2 2 2 1 3 4 9 12 6 3 6 7 1 4 4 7 8 6 10 11 12 10 1 7 8 8 8 6 7 7 5 2 2 7 11 2 2 3 5 5 9 16 21
7 7 6 3 1 2 3 5 12 8 4 3 3 2 2 4 3 4 8 3 4 10 9 4 4 9 7 9 9 9 2 3 3 1 6 3 6 3 2 1 5 9 5 8 16
8 9 7 3 2 3 4 14 9 3 3 2 2 3 2 0 6 2 5 1 6 7 4 5 8 9 9 3 2 4 4 4 2 3 4 4 5 3 0 0 9 12 9 2 8
8 7 4 1 3 4 8 12 2 4 2 3 1 4 6 2 2 3 2 4 5 5 5 5 3 2 3 7 4 13 6 4 2 2 5 3 4 4 2 7 10 12 10 7 4
7 7 5 1 2 5 9 4 4 3 1 3 2 3 1 4 2 1 2 5 2 7 8 5 4 3 3 7 6 3 4 3 5 4 2 2 4 4 4 8 8 7 9 10 9
8 8 7 6 7 8 4 3 3 2 2 2 2 5 3 1 2 2 5 4 1 3 5 7 6 2 3 2 1 5 4 5 5 4 2 3 5 4 5 7 8 8 9 11 11
9 9 11 6 5 3 1 5 4 2 2 1 3 4 4 1 1 1 1 3 1 3 2 4 4 3 5 2 2 5 6 3 0 0 4 2 3 5 7 7 9 10 11 12 11
9 6 11 7 4 3 4 4 2 1 3 2 3 2 3 2 2 4 4 2 1 3 4 3 5 1 3 2 7 2 5 3 3 3 4 4 4 2 10 7 6 9 11 11 11
7 4 5 5 4 6 5 2 1 1 1 2 1 3 2 5 3 2 3 2 2 2 2 1 2 4 3 4 4 4 4 1 2 3 4 4 3 4 8 5 6 7 8 9 9
5 4 4 6 5 2 3 1 3 2 1 1 1 1 3 3 2 2 3 3 2 2 2 2 2 3 2 3 1 1 1 5 4 4 1 3 2 3 6 5 5 7 6 6 7
4 4 5 8 4 5 2 2 2 2 1 0 2 1 1 2 2 1 3 1 1 1 2 3 2 4 5 4 3 4 4 2 2 0 7 4 2 5 6 5 5 6 6 5 4
3 3 4 8 5 4 3 3 3 2 2 1 1 1 3 2 3 5 4 1 2 3 3 1 2 3 1 4 2 4 7 8 8 5 4 9 5 7 8 6 8 7 6 3 1
6 4 4 3 7 7 3 1 3 3 2 2 2 2 2 3 3 3 3 4 2 1 1 2 3 2 0 1 3 4 6 10 13 12 7 5 4 2 7 8 9 7 5 3 4
6 4 4 1 2 9 5 6 7 3 3 3 3 4 2 2 1 6 6 4 2 3 2 1 2 2 3 2 3 7 10 11 11 9 11 12 15 7 6 10 9 7 3 5 6
17 8 3 3 4 5 4 6 6 8 1 1 2 4 3 3 4 8 8 9 6 4 4 3 4 3 1 0 5 9 9 12 5 6 7 7 2 8 7 8 6 3 4 4 8

GFSSW_850_spd_069.txt.gz
Wind_Speed
12 12 13 14 13 14 14 15 15 15 15 16 17 20 22 23 25 18 22 18 10 18 11 7 7 6 7 8 8 5 8 10 11 8 7 11 12 6 3 3 6 5 0 6 15
13 13 14 14 14 14 14 15 15 15 15 16 16 19 21 22 23 25 25 25 21 14 12 8 8 8 8 10 7 9 10 14 3 7 6 15 13 11 7 8 8 8 6 8 14
13 14 14 13 13 14 14 15 15 15 16 16 16 17 19 17 20 17 15 21 20 16 14 10 7 7 13 11 14 9 13 9 3 5 6 14 12 11 8 7 9 10 11 12 15
13 12 14 9 10 12 13 13 14 15 16 16 16 16 16 9 6 3 9 16 21 17 12 11 10 11 8 12 15 10 13 7 5 5 9 13 12 9 12 1 1 5 8 14 16
11 12 13 9 9 10 12 13 14 14 15 15 16 16 15 13 25 11 10 13 21 21 17 15 16 13 10 9 11 13 5 3 5 8 8 9 11 4 12 7 4 5 10 14 15
11 11 11 10 11 12 12 13 13 14 14 15 16 16 13 22 14 15 10 5 13 20 17 16 14 17 8 4 6 4 2 4 6 8 7 8 5 3 9 8 7 8 11 14 15
11 9 9 11 13 13 13 13 13 14 15 16 17 16 17 27 10 10 9 7 12 16 15 15 14 13 8 4 2 1 6 4 5 6 3 5 7 11 6 8 8 9 11 13 15
9 9 10 12 13 13 13 14 14 15 16 17 16 12 18 15 16 23 15 12 12 13 12 12 12 14 8 3 5 6 3 4 5 2 4 5 9 10 7 8 9 11 12 14 15
8 10 10 12 11 12 13 14 15 16 16 14 11 9 16 9 15 16 13 13 12 12 11 12 12 14 12 11 9 9 11 15 8 4 2 7 8 7 4 7 9 11 13 15 16
7 9 7 6 7 10 12 12 13 16 10 8 11 9 13 3 7 10 14 13 15 15 11 13 12 10 12 12 14 16 16 13 11 9 10 10 15 5 7 8 10 12 14 16 17
5 8 4 5 6 8 9 9 8 5 10 13 2 15 6 12 7 10 14 15 13 17 12 16 12 15 19 16 16 6 10 13 3 3 4 12 13 11 10 11 11 13 16 17 18
2 6 1 3 4 6 5 4 7 7 12 15 23 20 20 12 7 12 13 14 15 16 16 9 14 16 14 17 13 10 11 11 5 3 2 14 20 15 6 5 5 9 14 17 17
2 6 1 1 3 3 5 8 10 11 8 1 6 10 5 5 7 13 14 13 15 17 17 14 7 3 7 9 12 12 12 9 7 4 6 14 15 16 7 5 1 3 7 11 16
4 6 4 4 4 5 4 4 12 7 6 6 5 3 3 3 4 3 7 6 8 14 15 15 7 6 9 14 12 14 6 4 6 4 7 5 8 8 8 5 2 6 7 4 9
5 5 3 1 3 3 5 11 7 1 1 3 5 1 2 4 10 6 5 6 9 11 10 6 8 10 10 3 10 4 6 5 5 8 6 12 5 1 5 5 5 9 9 6 3
6 5 3 3 4 3 9 11 2 4 2 3 1 5 8 3 2 5 6 2 4 6 6 10 7 3 3 4 5 9 8 6 4 6 8 11 7 3 3 6 5 7 10 8 4
8 7 4 6 2 11 11 7 4 3 2 3 1 4 3 4 4 9 12 9 6 10 10 10 6 5 9 9 5 7 7 5 6 5 5 3 4 5 6 5 5 7 10 10 9
8 9 9 9 10 13 9 5 3 8 1 2 1 4 1 1 2 5 8 7 4 8 12 10 7 8 3 3 4 10 7 7 6 6 1 5 6 5 7 7 8 9 10 11 12
7 11 13 8 9 6 6 8 7 5 5 3 6 7 3 3 4 3 4 3 4 5 5 8 6 5 4 1 4 6 6 4 6 7 8 8 7 7 7 7 9 10 11 11 11
4 8 12 11 6 2 6 9 5 2 4 3 1 7 10 3 1 2 6 2 1 3 5 3 5 1 3 2 3 4 2 3 4 4 7 6 4 3 11 9 9 10 11 11 11
6 7 9 7 4 7 8 7 3 1 2 4 5 4 3 3 5 7 2 3 0 1 4 3 2 5 4 7 4 5 5 4 4 3 5 6 4 7 10 10 8 9 9 9 9
7 5 5 6 6 9 7 2 2 3 3 4 4 4 4 7 4 4 2 3 3 3 2 3 4 5 4 3 2 4 4 6 5 5 4 3 2 1 8 7 8 9 8 7 7
10 10 6 8 6 8 6 4 4 3 3 2 2 2 1 4 4 3 3 2 2 2 1 1 4 5 5 4 3 5 8 7 3 2 9 6 2 5 7 8 8 9 8 7 5
8 4 8 12 16 10 11 11 6 4 4 3 2 2 2 4 2 3 4 2 1 1 4 4 2 5 4 5 3 5 8 9 10 6 8 9 5 9 8 8 9 8 7 7 4
6 7 4 4 12 13 11 6 7 4 4 4 3 7 6 4 5 4 3 3 1 1 2 3 3 2 2 2 2 4 5 9 12 13 10 8 5 5 4 7 8 8 8 6 5
5 8 3 15 7 8 10 11 13 6 4 3 6 2 4 4 3 2 6 5 1 5 4 1 1 1 3 1 4 7 9 10 11 13 13 12 14 8 5 3 6 7 8 7 5
13 15 10 4 8 8 10 10 8 6 3 2 3 3 5 3 3 5 5 5 5 4 4 3 2 2 1 0 5 10 11 13 9 7 8 9 4 5 4 6 8 6 6 5 3

GFSSW_850_spd_072.txt.gz
Wind_Speed
13 12 13 15 15 15 15 16 16 15 16 17 17 19 20 23 25 22 22 23 6 17 15 10 7 6 6 6 11 6 3 6 14 7 6 16 7 4 5 8 4 4 9 13 23
13 13 14 16 15 13 14 15 15 15 16 16 17 18 19 22 25 26 24 23 22 16 13 8 9 9 9 7 7 7 4 9 7 8 2 14 15 12 5 7 7 7 5 14 20
14 14 15 16 14 12 13 14 14 14 15 16 17 17 18 18 20 4 5 13 19 20 20 11 10 6 11 15 13 9 5 11 4 9 7 13 10 14 7 7 10 20 16 15 17
14 13 13 13 11 11 12 13 13 14 15 16 17 17 16 13 6 5 9 8 13 20 19 14 14 15 9 8 13 5 18 17 4 2 3 9 12 9 10 5 6 4 16 20 18
13 14 12 13 10 10 11 12 12 14 15 16 17 18 20 10 25 12 13 15 14 24 23 18 18 16 9 5 11 9 13 15 5 1 3 10 7 2 12 6 4 5 12 17 17
13 14 10 12 11 11 12 13 13 14 15 16 17 18 16 24 16 14 14 11 8 21 23 20 15 18 10 11 7 6 3 7 4 1 3 2 5 4 9 10 5 6 11 14 15
13 12 11 12 13 11 11 11 12 14 16 17 18 20 19 32 16 14 10 11 7 15 19 19 19 17 16 5 5 4 2 4 3 2 6 11 5 9 6 10 8 8 11 13 15
12 11 12 13 13 10 11 13 14 16 18 18 18 18 16 20 13 16 17 16 9 13 19 15 17 16 14 8 5 4 2 3 2 4 2 5 4 9 7 6 10 10 13 14 15
10 9 12 12 11 10 11 12 13 16 17 16 16 9 18 10 16 18 17 18 12 14 15 11 12 13 11 7 6 6 6 8 7 5 2 5 5 5 2 7 9 9 11 17 15
8 8 11 11 10 10 12 13 9 16 9 10 12 12 16 11 11 12 15 13 14 15 16 14 11 10 9 10 10 11 13 9 11 7 4 4 5 17 27 14 9 9 11 12 18
7 7 8 10 8 10 8 9 10 3 4 11 9 12 25 20 14 8 13 15 15 17 11 19 10 13 16 17 16 14 5 5 5 5 5 8 3 10 16 18 11 10 12 12 18
5 5 6 7 4 4 8 4 8 8 15 17 24 25 24 20 12 11 14 13 16 13 16 8 14 15 17 16 17 13 8 10 10 6 4 4 6 12 16 0 5 6 7 10 12
3 3 2 4 4 6 10 11 10 12 7 11 9 10 8 5 10 13 11 16 9 13 14 12 12 18 15 13 13 10 6 4 8 6 3 3 5 9 3 9 3 1 3 8 12
1 2 1 5 6 6 6 6 11 7 4 5 4 3 2 5 2 8 13 8 8 15 14 13 6 11 5 8 5 8 10 2 7 5 5 7 4 4 11 8 6 12 9 8 5
2 3 4 6 11 6 8 12 8 1 4 4 4 2 1 3 2 4 3 6 8 12 9 4 6 2 7 5 8 2 5 5 6 7 6 8 2 2 9 8 8 11 7 5 3
4 5 8 8 11 11 14 17 4 3 4 3 3 2 4 6 2 3 4 7 12 10 3 2 6 4 1 6 6 9 5 4 1 2 4 12 8 0 3 5 7 12 7 5 2
7 7 10 9 3 14 17 9 2 5 9 11 7 1 7 0 3 6 7 7 4 3 5 6 5 2 9 5 3 6 7 3 3 3 3 5 5 5 7 7 7 10 10 9 8
13 11 10 14 10 11 12 4 2 6 2 5 8 8 7 5 2 5 11 7 7 4 6 6 5 6 4 1 4 7 3 2 3 3 4 2 4 4 8 11 12 13 12 12 12
14 14 17 11 7 6 5 5 4 3 5 13 13 9 9 9 7 4 9 6 4 6 3 5 4 4 5 3 4 5 3 2 3 5 2 5 5 4 8 8 14 15 13 14 14
13 15 19 12 9 3 5 9 4 2 3 9 9 8 4 14 8 3 5 2 3 3 5 5 5 1 2 2 1 4 3 1 2 2 4 6 6 6 9 8 9 11 13 14 14
11 7 9 11 6 6 5 10 3 3 3 4 6 12 10 2 3 3 3 1 4 4 3 6 2 3 3 5 3 3 2 3 1 2 1 4 3 5 9 9 9 14 15 13 12
3 5 6 5 6 8 7 2 2 4 4 4 4 7 2 4 4 4 2 4 5 7 3 2 4 3 3 3 4 4 3 7 2 2 2 2 1 5 9 10 17 16 12 11 10
3 16 15 7 5 8 13 4 3 2 3 2 3 1 3 3 4 2 4 1 3 4 4 6 3 4 3 1 1 3 3 3 4 3 3 1 2 4 8 7 10 15 13 11 9
2 3 7 12 18 17 14 13 10 3 3 4 3 1 4 4 3 1 1 2 3 5 4 3 3 3 2 4 2 4 4 5 4 2 3 2 6 6 7 7 9 10 12 12 9
5 6 11 5 9 13 13 11 14 7 4 3 3 4 5 4 2 3 5 1 1 1 2 3 3 5 6 4 4 4 5 7 7 6 3 3 4 9 9 10 17 16 11 11 10
4 4 9 19 23 15 11 11 14 14 2 3 4 3 3 1 5 5 5 4 3 2 2 2 2 2 3 4 1 3 5 6 6 6 6 6 5 7 11 10 8 11 10 7 5
7 17 14 11 14 10 10 13 6 7 3 2 6 4 4 3 4 3 7 7 5 4 4 3 1 1 2 1 4 6 2 8 5 4 1 5 3 5 4 4 6 6 8 5 4

GFSSW_850_spd_075.txt.gz
Wind_Speed
13 14 15 15 16 16 16 16 14 15 15 15 16 17 18 20 23 21 22 19 13 17 16 12 7 5 5 6 10 4 1 3 4 6 6 14 7 4 10 12 6 7 8 11 30
13 13 14 16 18 16 14 14 13 14 15 15 16 17 18 21 23 23 15 13 15 18 15 12 9 5 7 6 6 5 3 7 3 5 3 1 11 12 7 12 8 15 11 25 30
12 14 14 16 17 14 13 13 14 14 15 16 17 17 17 20 22 6 9 9 9 20 18 13 11 10 18 10 7 6 5 2 6 4 6 17 10 10 13 3 15 20 31 31 28
14 14 15 17 16 14 12 12 13 13 14 16 17 19 18 16 5 12 6 5 6 11 22 20 14 5 5 6 13 2 4 5 16 7 6 3 13 7 10 6 10 17 25 28 26
13 14 16 15 14 12 11 11 12 12 13 14 17 19 23 11 24 12 13 10 7 9 25 23 18 10 4 5 4 5 4 7 7 7 5 13 7 6 9 10 11 16 22 24 24
12 14 14 13 14 13 11 11 12 13 14 16 18 20 20 17 24 13 13 11 4 11 21 25 11 18 8 7 4 6 9 5 4 9 10 8 3 4 2 11 11 16 21 21 19
12 13 13 13 14 13 12 12 12 13 15 16 17 20 21 41 23 22 16 12 12 6 14 26 18 16 9 5 11 6 5 4 2 4 4 9 5 6 3 10 10 11 16 17 17
11 12 13 13 13 13 12 12 13 15 17 17 18 19 16 15 11 15 17 15 15 12 15 20 18 21 20 9 3 5 5 4 1 7 3 3 3 7 10 5 3 7 11 14 16
10 11 12 12 13 13 12 12 10 14 14 14 15 8 16 17 16 18 12 17 12 8 13 18 19 20 14 8 3 1 5 4 2 4 5 3 4 2 5 15 11 8 11 17 18
8 10 10 10 10 10 11 11 9 12 5 9 7 10 11 16 25 28 11 19 14 11 11 14 10 4 3 5 11 5 4 3 6 6 3 3 5 6 8 11 11 10 8 19 23
6 7 8 8 9 13 15 12 13 6 15 12 12 18 27 20 23 10 8 14 15 12 5 10 3 7 5 6 6 7 8 10 3 6 5 5 6 8 11 10 13 12 10 6 22
5 5 6 9 11 13 15 12 13 13 17 24 21 27 29 24 16 11 9 14 7 5 6 2 7 8 10 13 16 13 6 4 4 6 5 7 10 9 8 4 12 13 8 7 2
6 4 5 8 10 11 13 14 9 14 6 16 8 11 14 7 11 14 14 17 3 5 6 5 7 11 10 15 17 15 8 6 7 3 3 5 6 6 3 9 11 9 8 1 3
6 7 6 7 6 13 8 11 20 9 2 5 2 3 5 6 5 2 7 3 3 8 5 6 6 13 14 11 10 11 5 8 13 8 5 6 4 5 7 6 6 10 5 2 2
7 8 10 11 13 11 11 19 13 3 5 9 1 3 5 4 6 3 4 4 3 1 5 4 5 3 5 3 2 4 5 9 7 6 5 3 3 6 7 5 4 7 6 4 1
7 10 11 14 13 8 16 15 8 3 3 5 5 3 3 6 2 2 2 0 8 2 4 2 5 2 3 1 4 7 7 8 5 4 1 8 7 3 4 6 4 6 5 4 4
7 10 12 15 12 14 15 11 4 2 3 7 6 11 1 5 5 2 1 2 1 2 4 6 2 3 4 6 5 6 6 3 2 1 5 4 5 5 5 6 8 11 9 9 13
9 10 12 14 17 15 13 2 1 3 3 5 7 9 6 6 5 2 0 4 3 3 1 3 1 4 2 4 5 4 6 5 6 5 4 3 4 4 5 14 17 15 13 12 15
9 11 12 10 11 9 6 1 4 3 3 3 5 6 5 5 3 5 2 3 3 3 3 1 1 2 5 3 4 4 2 4 3 1 4 3 3 4 5 7 15 17 16 13 14
9 11 8 6 4 7 2 5 3 2 5 3 3 3 3 3 5 6 2 3 3 2 1 3 3 2 2 2 2 2 3 3 2 2 3 2 4 4 8 7 7 10 16 16 14
6 5 2 5 2 2 3 6 4 4 5 4 5 7 7 3 3 4 3 4 5 6 6 2 3 3 3 2 5 1 1 1 3 4 4 1 4 6 10 11 11 14 18 18 16
2 2 1 2 3 4 3 5 4 0 3 3 3 6 9 5 2 2 2 2 6 3 4 5 2 2 2 0 0 1 3 5 4 4 1 4 5 5 11 14 21 22 21 19 18
2 5 7 7 2 3 7 10 13 2 4 1 3 1 3 3 1 4 4 2 5 5 0 4 2 2 5 5 4 1 3 3 3 3 1 4 4 3 10 11 21 24 22 19 16
3 2 4 11 6 3 6 11 7 4 4 1 3 3 2 4 5 4 2 2 1 1 4 2 2 4 5 3 3 3 4 4 5 4 2 4 5 4 6 9 16 22 22 18 15
4 4 2 3 2 4 5 7 16 12 4 4 3 4 4 4 3 2 2 3 3 3 3 3 1 2 1 2 2 1 4 5 5 5 4 3 5 8 9 10 23 26 24 23 22
2 4 6 5 8 4 4 5 7 11 5 4 3 6 1 3 2 3 2 3 2 2 1 1 1 2 1 2 0 2 4 5 4 4 4 2 3 1 6 16 15 21 21 23 18
1 8 7 6 5 2 3 5 17 5 3 3 0 3 4 3 2 2 1 5 4 5 3 3 2 2 1 2 2 5 5 5 4 2 5 3 4 4 4 9 14 16 18 18 19

GFSSW_850_spd_078.txt.gz
Wind_Speed
11 12 14 14 15 16 16 15 14 13 14 14 15 16 18 21 23 21 20 16 13 14 17 14 12 8 9 7 8 5 2 3 5 6 7 7 6 7 11 15 7 12 12 7 30
11 12 12 14 16 17 17 14 14 14 14 14 15 17 18 22 25 26 11 9 10 16 18 16 13 8 6 8 7 5 4 8 6 3 5 13 11 14 8 13 5 8 10 19 32
11 12 13 16 17 16 14 12 13 13 14 14 16 17 17 21 24 3 8 5 5 3 19 18 14 6 5 7 8 8 6 6 5 13 5 7 10 6 16 2 14 19 21 33 34
11 14 15 17 15 16 14 12 13 14 14 15 17 20 20 18 6 9 6 3 3 6 17 22 15 5 6 6 10 4 7 3 5 6 4 2 4 6 13 7 15 16 19 33 36
11 13 14 15 14 14 12 11 12 13 14 16 18 21 24 11 21 13 21 25 11 5 9 25 17 10 5 7 7 6 5 7 3 2 9 2 2 5 8 8 11 22 29 32 35
11 13 13 13 12 12 11 11 11 12 13 15 18 21 17 11 15 15 14 21 15 5 10 21 10 19 6 6 8 10 10 8 4 5 7 5 3 2 6 11 13 27 33 34 30
10 11 12 12 11 11 11 11 12 12 14 15 17 18 19 26 15 13 13 20 16 11 12 15 22 7 0 3 8 7 5 3 5 4 3 3 6 4 4 12 18 28 27 26 23
10 9 9 10 10 11 13 13 13 13 15 15 16 14 14 10 13 16 16 16 19 14 11 13 21 15 5 7 5 6 5 5 3 6 2 6 3 4 11 11 12 18 20 22 19
10 9 8 8 11 13 14 17 15 16 13 14 14 8 15 10 14 19 22 22 17 17 13 12 13 15 8 4 2 1 5 4 3 2 4 3 4 5 3 6 9 8 13 18 20
10 8 7 8 10 13 16 14 16 9 4 13 7 8 9 16 22 25 15 8 15 13 10 9 12 4 4 5 13 4 6 3 6 7 2 4 6 4 7 6 8 7 11 19 24
9 8 7 8 12 15 19 18 16 5 28 13 13 16 30 22 25 11 17 7 11 4 2 6 3 7 5 8 7 5 6 6 2 5 4 8 4 7 12 11 11 13 15 13 25
5 6 7 10 14 15 16 11 11 12 17 21 14 19 18 18 13 11 5 7 6 5 4 2 5 6 6 4 8 4 5 4 1 4 3 6 8 10 6 7 13 15 16 11 13
4 4 7 11 12 16 13 13 20 17 6 16 8 12 10 6 7 11 3 8 2 3 5 4 3 3 4 5 7 6 5 5 5 3 1 6 6 6 4 6 7 8 10 9 9
4 5 7 11 8 16 10 15 16 10 3 6 4 4 5 4 6 6 4 2 6 3 5 3 4 4 4 6 8 11 8 8 7 7 5 3 4 4 3 5 4 7 7 5 5
3 4 9 9 11 15 17 19 15 4 5 10 6 9 7 2 12 5 5 4 2 3 4 5 2 5 6 11 7 8 7 12 8 5 5 1 3 6 3 3 4 3 3 3 9
5 4 8 10 12 16 21 24 10 4 4 5 6 8 9 4 3 2 3 3 1 2 2 2 1 2 3 2 3 5 7 7 4 2 0 6 6 5 5 7 4 3 2 1 6
6 7 7 8 11 16 18 19 4 3 4 7 7 6 6 4 5 2 0 3 1 5 5 2 4 2 2 4 5 3 5 3 1 1 5 4 4 7 2 5 7 8 6 4 6
6 8 8 7 7 9 13 5 3 4 2 1 5 9 4 5 5 6 2 2 3 3 2 3 6 2 2 4 7 6 6 5 6 5 4 6 6 4 2 7 13 11 12 13 14
7 7 6 4 7 5 5 4 5 4 4 2 3 5 5 4 3 5 2 1 2 2 1 5 6 2 1 2 3 5 3 4 5 2 3 2 3 4 4 5 10 13 14 14 16
8 9 1 3 2 3 4 3 4 5 0 1 1 0 3 5 6 6 3 4 3 2 3 1 2 1 1 2 3 2 3 2 3 3 3 3 3 4 8 8 6 8 14 15 17
6 7 2 4 2 2 3 5 5 16 6 4 4 2 5 4 3 4 5 3 3 7 5 1 1 5 1 2 5 1 0 4 4 4 4 2 6 5 12 12 11 14 18 19 17
3 2 3 5 2 1 2 4 11 8 13 5 3 7 4 1 3 3 2 1 4 1 2 1 3 1 5 4 1 3 4 4 4 3 1 4 5 4 8 13 19 20 20 18 16
2 3 7 9 1 2 5 5 5 4 3 4 3 2 2 3 3 4 2 2 1 3 1 2 2 2 6 5 3 2 3 4 5 3 3 4 5 4 6 10 19 24 23 21 19
3 2 3 10 4 3 2 4 5 8 5 6 4 3 3 3 3 4 3 2 3 2 3 3 1 4 5 5 3 2 3 3 5 3 3 5 3 2 5 9 14 22 26 27 25
3 3 0 2 4 3 2 3 4 6 5 4 3 4 3 3 5 3 1 4 2 2 1 2 2 2 4 3 2 2 3 6 5 4 5 3 7 7 9 11 26 30 29 27 24
2 3 3 5 6 5 2 3 3 5 3 6 3 3 2 4 5 4 0 2 4 2 1 1 3 2 3 3 2 3 3 3 3 3 2 4 4 2 11 8 15 26 30 27 23
5 4 3 4 3 2 4 1 5 3 10 2 3 3 4 3 3 5 5 2 4 3 4 2 2 2 3 4 4 6 5 6 4 4 6 6 7 3 2 7 19 24 27 26 23

GFSSW_850_spd_081.txt.gz
Wind_Speed
10 11 12 13 15 15 16 15 14 12 13 13 14 16 18 20 21 19 20 11 14 13 18 15 13 10 10 8 9 6 3 4 5 6 6 6 6 6 11 13 9 14 7 5 26
11 11 12 13 14 15 16 15 13 13 14 14 15 17 18 23 26 23 11 12 11 15 17 18 13 10 6 7 8 5 5 9 5 5 4 6 9 15 9 11 6 13 10 18 30
11 12 13 14 14 14 14 11 11 12 14 15 17 20 20 24 21 6 2 3 2 4 16 17 12 7 5 7 8 6 6 5 6 5 8 3 7 11 16 4 13 22 18 36 36
11 12 12 13 12 12 12 11 10 11 12 14 17 22 24 21 2 2 6 8 6 8 13 18 14 4 4 6 9 4 7 10 5 4 1 4 5 5 21 9 22 19 20 39 41
12 14 13 12 11 11 11 10 11 11 13 14 17 21 25 15 12 6 15 20 20 16 8 12 15 11 4 5 5 5 4 10 4 0 3 2 2 4 7 6 14 19 27 37 40
12 13 14 13 12 12 13 12 12 13 14 16 17 19 13 9 10 11 11 13 19 15 10 10 7 13 6 7 9 8 9 5 8 5 1 3 1 7 3 3 14 23 29 35 37
13 15 14 13 12 12 14 16 16 15 15 16 17 19 16 17 7 7 13 15 16 16 15 12 16 8 3 4 12 8 6 1 5 7 4 6 4 4 3 4 19 24 28 30 32
8 11 11 9 10 13 17 20 19 19 15 14 17 17 14 9 8 12 15 17 14 14 16 10 9 16 7 8 3 7 5 6 5 7 1 3 4 2 4 8 15 19 24 26 28
7 8 7 9 13 17 20 22 22 18 12 11 15 8 13 11 16 21 19 19 15 11 14 9 7 9 6 2 2 2 5 4 3 5 4 3 4 4 4 9 10 15 21 24 26
6 6 6 10 14 16 17 20 24 9 8 12 4 7 8 16 24 25 15 16 10 10 10 12 9 4 3 4 8 4 5 2 5 6 1 3 4 4 11 9 15 18 24 26 27
4 4 6 9 13 15 22 23 21 5 25 9 14 14 26 19 19 7 13 2 4 3 4 7 3 8 4 4 4 3 6 5 2 5 4 9 7 11 12 10 13 16 14 22 21
4 3 5 7 12 13 16 11 12 9 14 15 14 18 15 13 11 13 5 1 4 3 3 2 7 8 8 7 9 6 6 4 1 2 1 4 9 6 8 8 18 22 18 18 17
2 3 5 8 11 11 11 14 14 8 4 14 11 12 9 5 7 9 2 4 3 3 7 5 5 7 7 6 12 5 6 4 3 2 3 4 6 6 4 11 10 11 12 14 14
2 2 6 8 7 12 9 15 13 8 4 6 5 3 7 6 5 11 4 4 2 1 3 4 3 6 2 4 7 6 5 5 6 4 4 2 4 5 3 5 3 7 11 11 12
6 4 5 8 9 11 13 17 12 1 4 6 5 7 18 4 9 3 2 2 4 2 4 4 3 2 3 4 5 6 5 7 5 4 2 2 1 5 1 5 6 5 6 7 8
8 8 7 8 10 11 15 17 1 5 4 7 5 6 7 2 3 6 2 2 2 1 0 2 2 1 2 3 3 7 7 8 5 3 2 6 6 5 5 6 4 3 4 4 6
10 10 10 10 10 13 13 9 4 4 4 9 4 7 4 4 6 2 4 5 3 3 5 3 3 1 1 5 4 5 6 2 1 2 4 3 3 8 4 4 5 8 4 3 6
11 12 11 9 10 10 11 3 3 3 5 5 4 7 4 6 4 6 1 2 5 3 2 5 3 3 3 4 5 4 6 5 5 5 4 2 6 5 3 4 11 11 7 4 5
12 12 10 4 6 6 4 3 4 3 4 6 9 4 5 3 2 6 4 1 2 3 4 2 6 9 3 3 6 4 4 3 4 3 3 3 4 4 3 4 7 11 11 11 12
13 11 5 4 2 5 3 4 4 5 4 2 2 2 4 5 6 6 6 3 4 0 3 4 0 4 5 1 1 4 6 4 1 3 4 3 3 5 5 6 5 6 12 15 17
12 6 3 3 3 2 3 5 5 9 6 4 3 3 5 4 2 3 3 1 1 4 4 2 5 3 2 2 5 2 2 2 4 3 4 0 5 5 9 9 10 11 17 18 18
6 2 1 2 3 2 1 4 6 6 3 5 3 5 4 3 4 3 3 2 4 3 4 1 2 1 3 2 0 2 1 4 4 3 2 4 5 2 7 9 18 18 20 19 17
5 4 4 4 1 2 6 5 3 3 3 2 4 4 2 3 3 3 4 0 1 4 3 4 3 3 2 3 3 2 4 3 5 3 4 5 5 4 4 9 20 22 22 22 20
2 2 2 7 4 1 3 4 4 5 6 5 4 3 2 3 3 5 3 1 3 0 1 1 0 3 4 4 2 3 3 3 4 3 4 6 4 3 5 9 12 20 24 25 23
2 3 1 3 3 2 2 3 5 5 3 5 4 2 4 4 5 2 2 5 1 1 2 2 2 2 4 4 2 3 4 6 6 4 5 4 7 6 9 12 21 27 25 25 25
3 2 1 4 6 2 2 3 1 5 3 4 2 7 3 3 4 6 3 2 3 3 2 1 1 3 3 2 2 4 6 5 5 3 4 4 5 3 5 10 13 24 27 28 27
6 5 3 3 1 0 4 2 1 5 7 7 6 4 6 5 7 9 8 8 5 3 1 2 2 3 4 4 5 6 5 6 4 3 6 6 8 4 4 8 14 20 27 29 25

GFSSW_850_spd_084.txt.gz
Wind_Speed
14 14 15 16 16 15 16 16 15 13 13 15 15 17 19 22 22 22 18 8 8 11 14 14 11 11 8 8 10 7 2 4 6 6 5 5 5 6 9 12 10 13 4 3 26
14 15 17 18 17 16 15 15 13 13 13 14 16 17 18 23 25 10 6 7 3 7 11 13 12 9 5 5 7 6 5 9 5 5 3 2 7 14 8 9 7 13 10 10 28
11 13 16 17 16 15 14 15 15 14 14 16 18 21 23 25 10 4 4 1 1 5 11 11 10 6 4 8 7 5 6 5 6 7 4 3 3 13 10 4 17 26 21 22 31
13 15 17 17 16 16 15 14 15 15 16 17 20 23 25 18 3 1 5 10 11 9 12 9 9 3 4 5 7 3 9 6 6 5 1 3 3 6 15 10 24 20 24 28 34
9 10 12 13 12 12 14 16 17 18 18 18 20 23 26 15 4 4 9 13 17 18 15 8 9 7 4 4 7 5 3 12 6 8 4 3 7 7 17 6 8 19 26 31 34
7 10 10 10 12 14 16 18 19 18 19 19 19 22 16 7 6 5 7 11 11 13 15 9 4 9 8 5 7 3 10 6 8 5 6 3 3 4 4 5 8 21 29 33 34
7 8 8 10 12 15 18 20 20 19 18 17 18 18 17 9 6 7 13 16 15 12 13 13 10 12 2 4 7 12 4 1 6 7 5 7 3 4 5 2 9 19 30 32 35
7 7 7 8 11 14 15 20 24 23 15 13 15 16 11 6 11 14 17 15 15 13 12 12 9 9 7 10 7 6 6 5 4 8 3 7 6 3 2 5 11 15 24 30 34
5 5 5 7 11 13 16 23 24 16 8 16 10 10 6 13 17 21 19 16 11 14 10 9 6 7 5 3 3 3 6 5 2 5 4 4 4 3 5 9 13 15 18 25 31
3 3 5 7 11 14 20 23 20 12 13 7 6 6 8 19 21 17 8 11 10 4 8 9 7 3 2 4 9 3 5 3 6 6 2 2 3 4 5 7 12 17 19 24 30
5 2 4 7 12 15 22 23 19 5 17 6 11 8 17 19 19 12 10 4 1 2 4 6 3 6 7 6 7 2 5 5 3 5 5 7 5 8 9 8 11 16 19 23 25
7 6 5 7 12 12 17 14 13 10 11 13 8 15 15 13 11 13 5 3 3 4 2 2 7 10 11 11 11 9 5 4 2 3 4 5 9 8 7 8 17 19 15 14 17
8 8 8 9 12 9 13 13 15 13 4 10 9 11 8 9 6 12 4 3 3 2 5 7 9 11 8 8 10 8 4 5 4 3 3 4 5 4 6 13 14 15 17 21 20
9 9 10 10 8 13 7 11 17 10 4 6 5 3 8 10 6 11 5 4 1 5 4 5 4 7 4 7 8 8 6 5 6 4 3 1 4 4 3 7 4 8 9 12 13
10 10 10 11 12 11 12 14 16 1 5 7 5 7 23 5 10 2 4 3 5 5 1 4 3 4 4 4 6 6 1 5 4 4 2 1 1 6 1 6 7 7 9 9 10
12 11 10 12 12 8 14 14 3 5 4 7 5 7 8 4 4 7 2 2 4 4 1 4 1 3 1 3 2 8 6 7 5 3 1 5 5 5 5 5 0 5 10 9 7
12 12 12 11 12 13 13 9 4 5 4 8 6 5 4 5 7 5 3 3 2 7 6 4 3 4 3 4 5 4 5 3 2 1 4 1 5 10 2 2 3 9 11 7 7
14 13 12 11 11 11 11 3 1 1 4 5 4 8 4 6 4 6 5 2 2 3 2 6 2 5 6 1 4 2 6 4 5 4 4 2 5 5 2 3 1 11 7 5 6
14 13 8 6 6 5 5 2 5 5 3 5 8 4 5 3 1 7 4 2 3 4 5 8 5 5 1 2 3 3 2 3 4 2 2 2 5 3 2 3 5 7 7 6 7
13 12 4 3 2 5 3 5 3 3 2 2 1 1 4 6 7 6 5 1 3 1 4 6 3 1 2 3 1 4 6 3 3 2 2 3 4 5 4 6 4 4 9 10 12
11 5 6 2 1 1 2 5 5 7 6 5 5 3 5 4 2 4 5 3 4 6 1 6 2 3 8 1 4 2 1 6 4 3 2 2 5 5 4 8 9 10 13 14 16
6 2 2 1 2 2 1 2 8 5 3 5 3 5 4 2 4 3 3 3 6 2 2 3 3 3 4 3 1 1 2 5 4 5 2 2 5 0 5 7 17 18 17 16 17
5 3 2 2 0 2 6 4 4 4 4 3 4 4 3 2 3 4 5 3 5 4 3 2 0 2 3 3 4 3 3 3 4 3 4 5 5 1 2 5 18 20 19 19 19
2 2 0 2 1 2 2 4 5 9 5 6 4 2 3 2 3 5 4 4 5 3 5 3 1 4 4 3 2 4 4 4 4 3 5 6 5 3 3 6 9 17 20 21 20
1 2 1 2 2 2 0 2 4 4 5 7 4 5 4 3 4 2 3 6 3 5 3 2 2 2 5 5 3 3 5 5 7 4 5 3 6 6 6 8 16 21 20 20 20
2 1 1 2 3 2 2 3 1 5 1 5 4 9 6 4 4 5 3 2 2 4 3 2 2 2 3 3 2 4 6 6 4 2 6 1 6 6 2 8 13 18 19 21 21
6 6 2 2 1 2 4 3 2 4 6 8 5 7 7 5 12 16 12 11 7 2 3 2 2 4 4 5 6 5 3 4 4 4 5 5 8 4 2 1 4 11 17 21 21

GFSSW_850_spd_087.txt.gz
Wind_Speed
10 12 16 17 17 17 17 17 17 17 17 16 16 17 18 20 18 10 6 2 1 5 9 9 8 8 9 7 10 8 3 7 8 7 4 4 7 6 7 8 9 13 4 5 28
9 11 13 14 15 15 15 17 18 18 19 20 21 20 20 21 14 10 8 6 5 7 10 9 6 8 6 5 7 6 5 9 5 5 4 5 4 8 6 7 7 14 11 10 30
8 9 11 13 14 15 17 18 18 19 19 20 21 23 25 20 4 5 5 7 8 8 12 10 5 4 5 6 7 5 9 5 6 9 5 3 4 8 9 5 14 26 23 21 31
7 9 11 11 12 13 14 16 17 18 19 20 22 24 25 17 3 2 6 11 14 14 12 12 4 2 2 5 8 5 9 11 9 11 7 6 5 6 16 16 11 22 25 25 34
8 8 8 8 10 12 14 16 18 20 21 20 21 23 25 10 3 4 5 8 11 11 10 12 5 4 4 3 9 6 5 11 15 13 11 9 9 6 15 22 8 13 28 29 33
7 7 6 6 9 11 13 17 20 21 21 17 18 19 20 5 6 5 7 9 10 11 10 9 6 5 7 5 4 4 15 17 12 12 10 8 5 8 7 23 10 15 29 31 33
4 4 4 5 9 12 15 22 25 23 16 11 14 14 12 4 7 8 12 14 11 12 10 10 9 10 2 5 7 11 8 4 10 8 6 8 4 7 5 10 14 19 28 30 34
5 3 2 5 10 13 18 23 24 20 11 16 12 12 6 5 11 12 14 12 10 11 11 8 8 8 7 10 10 5 6 11 6 9 3 9 14 5 7 10 12 17 23 26 30
7 6 5 6 10 14 18 22 20 14 12 13 7 10 3 12 14 16 11 8 9 11 11 5 6 6 3 4 6 4 13 12 4 8 5 6 4 4 7 12 14 15 17 19 23
8 8 8 9 12 16 19 19 19 10 15 7 6 6 4 14 20 12 9 11 5 5 1 5 4 2 1 5 11 8 8 5 16 6 2 6 3 2 5 8 12 14 15 20 27
10 9 9 10 13 17 20 18 17 5 14 5 11 9 15 18 15 12 8 5 1 3 3 6 4 11 11 10 12 4 5 11 5 7 6 9 6 8 6 5 9 13 20 22 28
11 10 9 10 14 14 17 11 11 10 11 10 8 13 11 13 13 14 4 3 3 4 2 1 12 14 12 12 13 19 14 12 2 3 4 6 10 5 8 7 15 18 20 20 19
11 10 9 10 13 11 13 11 14 15 4 8 8 8 9 11 8 9 5 3 5 3 5 8 13 8 12 13 12 16 14 10 8 4 2 5 4 6 7 14 14 15 17 16 16
11 11 10 9 7 13 8 14 17 7 4 5 4 3 8 13 5 13 6 4 2 4 2 7 8 13 8 13 14 12 11 9 7 6 5 1 3 4 6 9 8 16 18 17 19
13 11 11 9 9 11 10 15 12 2 4 8 4 7 14 1 9 2 6 1 1 10 4 8 4 6 11 7 11 8 3 6 2 2 2 1 2 4 1 5 10 10 13 16 17
14 12 11 10 10 6 12 15 3 4 3 7 5 6 8 4 3 8 3 1 4 6 3 9 4 1 2 2 2 9 6 7 1 2 3 4 4 4 5 5 0 3 14 15 13
15 13 11 10 9 10 11 8 4 4 4 7 4 6 3 4 6 3 2 3 3 8 10 7 4 4 3 4 4 3 5 0 2 3 3 0 4 9 3 2 2 5 13 13 12
14 13 11 8 6 6 7 4 0 1 3 3 4 6 4 6 3 5 4 3 3 3 4 7 5 7 6 3 1 1 7 3 3 4 3 2 5 4 0 2 5 5 11 9 8
14 12 6 6 4 3 2 3 4 4 2 5 6 3 5 3 1 6 2 3 3 4 4 6 6 5 2 3 1 2 6 5 4 2 1 1 5 4 1 2 2 5 6 6 7
13 9 3 3 2 3 3 4 3 2 4 1 2 1 3 5 6 4 4 2 4 2 7 7 4 3 5 2 1 4 5 2 3 1 1 2 4 4 2 6 5 4 6 6 8
11 4 5 2 2 1 2 5 4 7 5 4 3 3 5 4 2 3 4 3 3 5 0 7 3 6 5 3 2 2 1 5 4 2 1 3 3 4 3 5 9 8 7 8 11
5 2 1 2 2 2 2 3 4 5 2 4 3 5 4 2 3 3 3 4 4 1 4 2 2 1 6 6 3 3 1 3 3 3 2 1 4 1 2 3 11 11 11 12 14
6 2 2 2 1 2 4 3 4 3 3 4 3 2 2 3 3 4 3 5 3 3 3 3 1 1 3 3 2 2 0 4 4 2 5 3 4 1 3 1 11 14 14 15 17
3 2 0 1 3 2 2 3 4 6 3 3 4 5 5 3 2 4 3 3 8 1 2 2 2 3 3 2 2 3 3 3 3 2 4 5 5 5 3 2 6 12 16 18 18
1 2 1 2 2 1 2 1 2 4 3 6 1 5 2 4 5 3 3 5 4 5 3 3 2 3 6 6 3 3 4 5 6 3 5 1 4 5 4 4 11 16 18 19 19
3 3 2 1 1 1 1 3 3 3 2 4 1 6 2 4 4 5 4 3 5 5 4 3 2 4 3 3 3 4 6 3 4 4 5 3 6 5 3 2 10 15 19 20 21
7 7 3 2 2 2 3 3 2 1 5 7 2 4 7 5 9 22 21 17 7 3 2 2 2 4 4 4 4 3 3 3 2 3 4 4 4 2 2 4 5 11 17 19 20

GFSSW_850_spd_090.txt.gz
Wind_Speed
5 8 10 11 12 12 13 14 15 15 16 16 16 17 20 20 13 8 6 6 2 5 5 5 5 7 7 6 9 7 8 14 19 16 13 5 11 5 10 8 10 11 2 7 26
7 9 10 10 10 12 13 14 15 16 17 17 17 18 20 19 4 7 7 9 8 8 8 6 1 3 7 6 7 13 13 21 15 16 10 7 10 11 10 16 10 12 5 17 28
7 8 8 8 9 12 14 16 18 20 21 20 19 18 20 16 3 2 7 9 9 8 8 9 5 2 9 10 13 13 20 15 13 18 12 11 10 10 12 12 21 19 16 24 29
7 8 7 8 10 12 14 17 20 22 23 23 19 18 19 8 3 5 7 9 11 10 6 3 3 1 4 11 16 14 20 21 16 13 11 13 8 10 17 12 11 14 18 24 30
7 7 6 7 9 11 14 18 22 23 22 18 16 16 16 3 3 5 6 7 10 9 7 2 4 2 6 5 12 18 18 18 19 24 18 13 16 15 17 16 7 7 20 26 28
9 8 5 5 9 11 15 20 23 21 15 14 13 13 7 2 4 4 6 8 9 6 6 3 3 4 7 9 12 9 12 24 23 18 19 15 17 8 13 13 10 13 19 24 26
8 8 5 6 9 12 17 22 24 18 12 14 11 12 2 2 6 9 11 11 9 6 4 4 4 6 1 6 10 13 18 18 19 28 14 17 21 14 14 10 17 14 16 19 22
8 8 7 7 11 14 17 22 22 15 12 13 12 10 3 6 11 12 10 10 8 9 7 6 4 6 9 10 14 11 15 18 19 18 22 15 25 21 14 12 17 18 16 16 19
8 8 8 9 12 15 18 22 20 13 15 9 11 7 1 12 15 14 9 5 8 8 8 3 2 6 6 10 11 12 15 18 19 14 16 18 21 19 14 14 14 18 19 21 21
9 9 9 10 13 16 18 21 20 10 18 7 7 5 6 12 19 9 7 6 3 3 1 3 5 7 8 10 15 15 17 19 19 18 15 17 18 7 13 16 16 16 20 21 21
11 10 9 10 13 17 18 15 12 5 13 4 8 7 11 15 12 9 8 4 1 3 6 5 7 11 14 14 18 16 17 21 18 17 17 22 18 12 14 14 16 17 17 19 21
12 11 10 9 11 13 16 9 8 9 10 8 8 11 10 13 6 5 4 3 4 9 5 6 12 15 15 13 15 17 18 19 18 17 17 19 20 17 12 14 17 19 19 20 17
12 11 11 10 10 10 11 12 14 13 5 6 8 8 7 10 6 4 3 3 5 6 12 17 20 21 11 14 16 18 18 19 18 12 16 15 19 21 13 14 15 17 17 18 19
13 12 11 10 5 10 7 15 15 7 3 5 2 2 6 12 4 6 2 4 4 6 15 9 10 11 12 14 15 18 18 21 16 11 13 15 12 20 18 16 15 19 18 17 16
14 13 11 9 7 7 7 12 11 2 3 7 2 7 10 4 9 0 5 3 7 12 8 7 18 17 12 16 14 18 15 16 19 13 17 11 10 10 8 16 17 18 22 20 18
15 14 12 9 8 5 9 11 3 3 1 2 4 6 10 1 4 6 3 2 2 4 10 14 14 7 9 7 7 11 10 12 3 3 7 14 12 11 10 11 11 9 16 18 16
13 14 13 10 7 7 6 5 4 4 1 5 5 7 9 9 5 5 6 4 5 9 10 12 6 9 6 8 4 8 10 4 5 3 4 3 7 8 4 3 1 1 9 12 10
13 13 11 8 5 4 3 3 5 2 3 2 4 9 4 8 4 10 7 6 4 2 4 6 6 12 11 6 5 7 10 2 3 5 6 4 6 3 4 1 0 1 7 8 7
14 12 7 6 3 2 3 4 3 2 4 7 10 5 2 3 3 7 7 6 5 2 3 5 5 8 6 6 5 2 2 6 6 3 3 5 5 6 1 2 2 6 8 6 5
13 10 5 4 2 2 3 3 2 2 4 3 5 2 6 8 8 8 9 3 7 2 6 5 4 8 12 5 2 3 11 4 6 2 3 4 1 3 3 3 5 7 8 7 7
11 4 3 3 4 4 3 2 3 4 4 3 3 6 6 6 7 6 7 2 3 7 4 7 3 7 6 5 7 1 4 6 1 3 4 3 6 6 7 6 6 8 8 9 10
6 3 5 4 3 1 2 1 4 4 2 2 3 5 5 5 7 5 6 6 4 8 4 3 3 1 5 8 6 7 6 5 3 2 2 3 3 5 6 4 6 10 10 11 12
5 3 4 1 3 1 2 3 4 3 3 2 2 2 3 4 5 4 5 4 6 5 5 2 1 4 3 7 2 4 2 2 2 2 2 1 3 2 7 6 7 11 12 13 14
2 2 0 1 1 2 4 4 3 3 4 3 4 1 5 3 1 7 7 4 15 4 7 6 3 4 6 6 3 5 3 2 4 2 1 6 8 6 7 5 8 11 12 14 15
3 2 1 1 1 2 1 2 5 4 3 3 3 4 4 4 9 3 6 12 6 4 5 4 6 3 9 11 7 8 7 5 5 7 5 5 4 8 8 3 10 14 15 15 15
4 3 2 2 1 4 3 2 4 4 3 4 5 4 3 6 8 14 8 7 6 4 10 3 4 5 4 1 2 7 8 7 8 7 9 10 12 5 3 3 9 13 15 15 15
11 8 3 3 3 3 3 3 1 2 3 7 7 8 11 10 8 17 21 22 18 11 7 4 5 4 3 3 7 1 4 1 2 3 5 5 4 6 3 5 5 9 12 13 15

GFSSW_850_spd_093.txt.gz
Wind_Speed
6 8 9 10 10 11 13 14 16 16 17 17 16 17 18 17 10 8 3 2 3 5 4 7 4 5 9 10 15 11 11 17 22 20 15 16 4 10 11 6 11 12 5 12 25
7 9 9 8 9 11 13 17 19 21 21 21 17 16 17 16 5 3 4 6 6 7 7 6 2 5 12 14 13 15 14 23 18 16 16 18 14 12 6 13 15 13 4 18 27
9 9 6 6 9 12 16 19 23 25 26 22 16 13 15 8 2 3 8 8 10 8 5 5 5 5 12 14 19 20 20 19 19 22 23 19 17 16 15 14 18 21 13 23 27
8 9 6 7 10 14 17 22 26 28 24 19 15 13 9 10 4 4 7 9 10 11 6 5 4 5 6 11 15 21 24 23 27 26 17 19 23 18 18 17 11 18 17 23 27
9 10 8 9 12 15 18 22 26 26 20 18 15 16 5 1 6 7 8 10 10 7 6 6 6 6 8 7 13 19 18 24 24 24 25 20 23 23 20 18 9 7 10 23 26
10 10 8 9 11 14 19 22 27 24 19 17 15 14 4 2 7 8 10 10 8 6 6 6 6 8 11 13 12 13 13 18 24 26 22 25 23 23 25 16 11 14 18 20 24
10 10 8 8 11 14 19 21 25 23 16 14 15 9 3 5 9 11 10 10 8 4 5 5 6 7 7 10 11 16 17 17 21 21 24 22 23 28 28 16 19 15 19 22 23
10 10 10 10 12 14 18 20 23 23 13 12 13 4 3 9 11 10 8 7 8 6 6 7 7 9 12 13 17 16 19 18 16 22 24 24 29 23 30 23 17 19 18 21 24
11 11 10 11 12 15 18 19 20 18 13 9 8 3 2 11 8 11 8 5 7 7 6 5 4 9 9 11 12 12 16 20 20 19 19 22 31 21 29 32 21 21 21 20 22
11 11 11 11 13 16 18 18 16 12 15 6 8 4 2 11 13 11 7 8 6 6 7 5 6 8 10 9 12 16 17 18 17 18 19 23 23 19 29 16 22 23 21 22 25
11 11 11 12 13 16 17 16 12 4 9 6 10 8 11 15 8 4 6 6 6 8 9 7 9 13 17 13 17 19 20 23 20 19 22 21 22 21 26 14 19 21 24 22 23
13 12 13 12 12 12 14 6 7 8 9 7 9 10 12 11 8 2 6 6 8 12 13 10 15 18 12 16 17 18 20 21 20 20 22 21 23 22 23 17 20 23 23 24 23
14 13 13 13 12 9 8 9 13 8 6 4 6 8 7 7 8 7 4 11 11 11 13 19 17 12 11 14 16 16 17 19 19 20 22 20 23 20 23 20 19 21 20 19 22
12 12 12 12 6 11 5 14 14 5 5 6 1 1 5 8 4 6 5 6 11 12 15 8 6 16 15 17 13 16 14 16 18 17 15 17 15 20 21 21 18 21 21 22 19
13 13 13 11 8 6 9 13 11 3 4 3 2 5 10 4 13 2 5 6 11 16 10 16 16 14 14 12 13 15 15 14 17 17 19 17 14 18 22 22 21 19 23 21 19
14 13 12 11 9 7 11 12 4 5 1 2 2 8 13 2 7 8 7 5 10 13 10 18 6 5 11 16 16 16 12 11 13 14 11 19 11 19 16 24 22 25 26 24 20
14 14 12 9 4 9 8 4 6 5 2 3 6 10 13 11 6 9 9 7 9 13 17 13 6 10 8 16 7 8 7 2 4 4 6 16 8 8 7 8 2 17 22 18 17
15 15 11 8 8 7 5 5 6 5 4 6 7 13 7 10 11 13 10 11 9 12 15 7 7 12 17 7 8 14 1 3 4 2 4 4 6 11 6 11 15 10 11 15 13
14 12 8 8 6 5 6 5 5 8 5 10 15 6 4 4 7 10 12 8 11 13 11 7 3 13 14 8 5 7 6 3 4 10 3 6 7 6 9 9 8 12 13 13 11
13 6 4 7 4 4 6 7 4 5 7 6 8 3 10 12 11 15 10 5 12 15 11 3 8 9 9 7 3 4 11 2 3 3 2 9 20 7 9 8 8 9 13 11 11
8 6 6 8 7 6 5 6 4 4 5 4 7 11 12 11 11 14 8 6 13 15 10 8 5 10 6 7 8 1 3 1 7 1 4 4 8 10 11 6 8 10 12 12 13
4 4 4 8 8 1 5 3 4 6 4 5 6 7 9 10 10 10 11 9 12 17 9 6 7 10 6 8 3 6 7 7 3 8 6 4 6 9 10 7 11 13 13 13 13
4 5 7 2 4 4 1 6 4 7 5 4 5 1 8 9 7 7 7 8 11 13 10 10 5 10 4 5 3 8 9 7 6 2 7 5 3 9 11 8 11 13 13 13 14
3 3 4 4 3 5 7 6 4 2 8 6 8 7 8 9 6 8 15 6 18 9 7 5 9 12 10 13 7 9 10 6 7 4 5 3 6 7 10 6 8 11 13 14 14
4 3 3 3 4 4 4 6 8 6 5 5 4 3 7 7 13 13 11 14 13 2 7 8 8 13 13 14 9 8 9 8 7 7 5 9 9 11 10 6 6 10 12 14 14
5 4 2 9 6 7 4 4 6 7 5 5 6 11 10 12 14 18 16 12 7 7 13 10 8 15 15 3 5 6 6 6 8 8 8 7 4 7 8 6 7 9 10 11 12
11 8 1 1 5 5 7 7 3 3 4 6 5 8 13 15 15 19 21 23 21 17 14 10 6 8 4 2 7 4 7 4 4 3 6 6 6 9 8 7 5 7 8 10 11